GW4438 Weather Reports


time (UTC)temp
C
wind
direction
speed
KPH
gust
KPH
rain 1hr
cm
rain 24hr
cm
rain mn
cm
humidity
%
barometer
mb
20260507050004 18 148 0.0 3.2 0.00 0.00 0.00 61 1016.0
20260507044539 17 181 0.0 3.2 0.00 0.00 0.00 60 1015.9
20260507043033 16 285 0.0 0.0 0.00 0.00 0.00 61 1015.9
20260507041607 16 285 0.0 0.0 0.00 0.00 0.00 64 1016.0
20260507040122 14 285 0.0 0.0 0.00 0.00 0.00 68 1016.1
20260507034625 13 285 0.0 0.0 0.00 0.00 0.00 72 1016.2
20260507033012 13 285 0.0 0.0 0.00 0.00 0.00 74 1015.9
20260507031549 13 285 0.0 0.0 0.00 0.00 0.00 74 1015.9
20260507030110 13 285 0.0 0.0 0.00 0.00 0.00 73 1015.9
20260507024617 13 285 0.0 0.0 0.00 0.00 0.00 72 1015.8
20260507023001 14 285 0.0 0.0 0.00 0.00 0.00 70 1015.8
20260507021516 14 285 0.0 0.0 0.00 0.00 0.00 70 1015.6
20260507020025 13 285 0.0 0.0 0.00 0.00 0.00 67 1015.7
20260507014624 13 285 0.0 0.0 0.00 0.00 0.00 66 1015.7
20260507013010 13 285 0.0 0.0 0.00 0.00 0.00 66 1015.4
20260507011555 14 285 0.0 0.0 0.00 0.00 0.00 65 1015.2
20260507010058 14 285 0.0 0.0 0.00 0.00 0.00 65 1014.9
20260507004612 14 285 0.0 0.0 0.00 0.00 0.00 65 1014.9
20260507003125 15 285 0.0 0.0 0.00 0.00 0.00 61 1014.7
20260507001507 15 285 0.0 0.0 0.00 0.00 0.00 63 1014.7
20260507000022 15 285 0.0 0.0 0.00 0.00 0.00 64 1015.0
20260506234606 15 285 0.0 0.0 0.00 0.00 0.00 63 1015.4
20260506233117 14 285 0.0 0.0 0.00 0.00 0.00 63 1015.6
20260506231628 15 285 0.0 0.0 0.00 0.00 0.00 62 1015.7
20260506230000 15 285 0.0 0.0 0.00 0.00 0.00 63 1015.7
20260506224524 15 285 0.0 0.0 0.00 0.00 0.00 61 1015.7
20260506223053 15 285 0.0 0.0 0.00 0.00 0.00 61 1015.7
20260506221605 15 285 0.0 0.0 0.00 0.00 0.00 59 1015.8
20260506220121 16 285 0.0 0.0 0.00 0.00 0.00 59 1015.9
20260506214506 15 285 0.0 0.0 0.00 0.00 0.00 61 1015.9
20260506213045 15 285 0.0 0.0 0.00 0.00 0.00 60 1016.1
20260506211557 16 285 0.0 0.0 0.00 0.00 0.00 58 1016.2
20260506210121 16 285 0.0 0.0 0.00 0.00 0.00 57 1016.3
20260506204619 16 285 0.0 0.0 0.00 0.00 0.00 57 1016.5
20260506203145 16 285 0.0 0.0 0.00 0.00 0.00 56 1016.4
20260506201510 17 285 0.0 0.0 0.00 0.00 0.00 54 1016.3
20260506200049 17 285 0.0 0.0 0.00 0.00 0.00 52 1016.2
20260506194526 18 285 0.0 0.0 0.00 0.00 0.00 51 1016.0
20260506193104 18 285 0.0 0.0 0.00 0.00 0.00 51 1015.9
20260506191619 18 285 0.0 0.0 0.00 0.00 0.00 50 1015.6
20260506190053 18 322 0.0 0.0 0.00 0.00 0.00 50 1015.4
20260506184602 18 322 0.0 1.6 0.00 0.00 0.00 51 1015.3
20260506183113 18 351 0.0 1.6 0.00 0.00 0.00 49 1015.2
20260506181614 19 351 0.0 0.0 0.00 0.00 0.00 48 1014.9
20260506180123 20 351 0.0 3.2 0.00 0.00 0.00 46 1014.8
20260506174507 21 353 0.0 6.4 0.00 0.00 0.00 40 1014.7
20260506173059 21 348 0.0 9.7 0.00 0.00 0.00 40 1014.5
20260506171612 21 3 0.0 9.7 0.00 0.00 0.00 40 1014.5
20260506170113 21 134 4.8 12.9 0.00 0.00 0.00 40 1014.3
20260506164624 22 84 4.8 9.7 0.00 0.00 0.00 39 1014.3
20260506163143 22 106 3.2 17.7 0.00 0.00 0.00 38 1014.4
20260506161512 23 39 4.8 16.1 0.00 0.00 0.00 36 1014.3
20260506160020 23 27 3.2 14.5 0.00 0.00 0.00 35 1014.1
20260506154555 23 41 3.2 16.1 0.00 0.00 0.00 36 1014.2
20260506153136 23 8 6.4 19.3 0.00 0.00 0.00 36 1014.4
20260506151614 24 11 3.2 14.5 0.00 0.00 0.00 37 1014.5
20260506150125 24 79 1.6 11.3 0.00 0.00 0.00 38 1014.5
20260506144505 23 59 4.8 19.3 0.00 0.00 0.00 40 1014.5
20260506143041 23 114 8.0 20.9 0.00 0.00 0.00 39 1014.6
20260506141551 24 46 4.8 16.1 0.00 0.00 0.00 41 1014.6
20260506140103 24 91 6.4 17.7 0.00 0.00 0.00 40 1014.6
20260506134613 24 253 4.8 22.5 0.00 0.00 0.00 41 1014.7
20260506133120 24 104 4.8 14.5 0.00 0.00 0.00 40 1014.7
20260506131630 24 129 3.2 16.1 0.00 0.00 0.00 39 1014.8
20260506130008 25 335 1.6 16.1 0.00 0.00 0.00 39 1014.8
20260506124516 25 7 6.4 19.3 0.00 0.00 0.00 39 1014.8
20260506123057 25 88 4.8 17.7 0.00 0.00 0.00 38 1014.9
20260506121612 25 29 6.4 17.7 0.00 0.00 0.00 36 1015.1
20260506120106 25 44 4.8 14.5 0.00 0.00 0.00 34 1015.3
20260506114616 25 82 6.4 12.9 0.00 0.00 0.00 35 1015.2
20260506113128 25 58 6.4 16.1 0.00 0.00 0.00 39 1015.3
20260506111510 25 86 3.2 12.9 0.00 0.00 0.00 38 1015.4
20260506110017 24 288 4.8 14.5 0.00 0.00 0.00 39 1015.5
20260506104552 25 29 6.4 14.5 0.00 0.00 0.00 40 1015.5
20260506103106 25 59 3.2 11.3 0.00 0.00 0.00 38 1015.4
20260506101637 25 80 4.8 9.7 0.00 0.00 0.00 38 1015.5
20260506100052 24 51 4.8 12.9 0.00 0.00 0.00 41 1015.6
20260506094503 24 88 3.2 9.7 0.00 0.00 0.00 41 1015.8
20260506093006 23 98 4.8 11.3 0.00 0.00 0.00 42 1015.7
20260506091505 23 64 1.6 11.3 0.00 0.00 0.00 41 1015.8
20260506090008 25 101 1.6 8.0 0.00 0.00 0.00 40 1015.7
20260506084504 23 43 3.2 8.0 0.00 0.00 0.00 42 1015.7
20260506083119 23 71 1.6 9.7 0.00 0.00 0.00 41 1015.7
20260506081503 23 87 1.6 8.0 0.00 0.00 0.00 44 1015.7
20260506080119 23 77 3.2 11.3 0.00 0.00 0.00 42 1015.7
20260506073023 22 86 0.0 8.0 0.00 0.00 0.00 44 1015.3
20260506070107 22 67 1.6 6.4 0.00 0.00 0.00 41 1015.2
20260506061510 21 334 0.0 1.6 0.00 0.00 0.00 43 1015.3
20260506060117 21 333 0.0 0.0 0.00 0.00 0.00 46 1015.3